Regional Weather Roundup
Issued by NWS Sioux Falls, SD

Home | Current Version | Previous Version | Graphics & Text | Print | Product List | Glossary Off
Versions: 1 2 3 4 5 6 7 8 9 10 11 12 13 14 15 16 17 18 19 20 21 22 23 24 25 26 27 28 29 30 31 32 33 34 35 36 37 38 39 40 41 42 43 44 45 46 47 48 49 50

000
ASUS43 KFSD 290110
RWRFSD

WEATHER ROUNDUP FOR SE SOUTH DAKOTA/SW MINNESOTA/NW IOWA
NATIONAL WEATHER SERVICE SIOUX FALLS SD
800 PM CDT THU APR 28 2016

NOTE: "FAIR" INDICATES FEW OR NO CLOUDS BELOW 12,000 FEET WITH NO
SIGNIFICANT WEATHER AND OR OBSTRUCTIONS TO VISIBILITY.


SDZ038>040-050-052>070-290200-
SOUTHEAST SOUTH DAKOTA

CITY           SKY/WX    TMP DP  RH WIND       PRES   REMARKS
BROOKINGS      CLOUDY    36  34  92 NE9       30.08R
CHAMBERLAIN    CLOUDY    45  40  82 NE3       30.09R
HURON          CLOUDY    40  35  83 MISG      30.10R
MADISON        CLOUDY    36  36 100 NE10      30.07R
MITCHELL       CLOUDY    42  37  82 NE10      30.09R
SIOUX FALLS    CLOUDY    40  35  83 NE9       30.08R
WINNER         CLOUDY    45  37  73 N7        30.08R
YANKTON        CLOUDY    43  37  81 CALM      30.07R
$$

MNZ071-072-080-081-089-090-097-098-290200-
SOUTHWEST MINNESOTA

CITY           SKY/WX    TMP DP  RH WIND       PRES   REMARKS
FAIRMONT       CLOUDY    41  30  65 NE9       30.05R
JACKSON        CLOUDY    39  36  87 N8        30.05R
LUVERNE        CLOUDY    37  34  87 N6        30.08R
MARSHALL       LGT RAIN  38  37  97 N9        30.10R FOG
MONTEVIDEO     CLOUDY    43  39  87 SE6       30.11R
PIPESTONE      CLOUDY    37  36  93 N5        30.06S
REDWOOD FALLS  CLOUDY    41  36  82 NE7       30.09R
TRACY          CLOUDY    40  38  92 N8        30.08R FOG
WINDOM         CLOUDY    39  37  93 N5        30.06R
WORTHINGTON    CLOUDY    39  36  89 N9        30.06R
$$

IAZ001>003-012>014-020>022-031-032-NEZ013-014-SDZ071-290200-
NORTHWEST IOWA

CITY           SKY/WX    TMP DP  RH WIND       PRES   REMARKS
CHEROKEE       CLOUDY    43  41  92 NW7       30.05R
DENISON        CLOUDY    45  41  87 NW10      30.01S
ESTHERVILLE    CLOUDY    40  37  89 N12       30.04R
LE MARS        CLOUDY    43  39  87 N6        30.07R
ORANGE CITY    CLOUDY    41  37  87 N6        30.06R
SHELDON        CLOUDY    41  39  93 N7        30.05R
SIOUX CITY     CLOUDY    45  39  79 N12       30.05F
SPENCER        CLOUDY    42  36  79 N9        30.05R
STORM LAKE     CLOUDY    43  39  87 N7        30.04R
$$

ABBREVIATIONS USED IN REMARKS
   TC - TEMPERATURE IN CELSIUS
  WCI - WIND CHILL INDEX
   HX - HEAT INDEX
  VSB - VISIBILITY





USA.gov is the U.S. government's official web portal to all federal, state and local government web resources and services.